Wind_Speed
12 13 13 14 14 13 13 13 14 15 14 13 15 16 16 16 15 17 17 17 17 16 15 16 17 15 14 13 13 13 14 14 14 13 13 13 13 13 12 12 12 13 13 13
13 14 14 14 14 15 14 15 15 15 15 15 16 17 16 16 16 16 16 16 16 15 16 17 16 15 14 13 13 13 13 14 14 13 13 13 13 13 12 12 12 13 13 13
14 13 14 15 15 16 16 16 16 16 15 15 17 18 17 17 18 15 15 16 16 15 15 16 15 14 13 13 13 13 13 13 13 13 13 13 13 12 13 13 13 13 13 14
13 12 15 16 16 17 17 17 17 16 15 15 17 19 16 18 18 17 15 15 16 15 15 15 14 13 12 11 12 13 13 13 12 12 12 13 12 13 13 13 13 13 14 15
13 13 15 16 16 16 17 16 17 16 16 18 18 19 18 17 18 16 16 16 15 15 15 14 13 13 11 11 11 12 12 12 11 11 11 12 12 12 12 13 13 14 15 15
14 14 16 16 16 16 16 15 16 15 16 18 16 18 17 18 16 15 16 15 14 15 14 14 13 13 12 12 11 11 11 11 11 11 12 12 13 13 13 14 14 14 15 15
13 13 15 17 16 16 16 14 14 15 16 17 16 17 18 17 15 15 15 15 15 14 14 15 15 14 14 14 12 11 11 11 12 12 13 13 14 14 14 15 15 15 15 16
13 13 13 15 15 15 15 14 14 15 15 16 15 17 17 14 15 15 15 15 15 14 15 15 14 14 14 14 13 12 12 12 12 12 13 13 14 15 15 15 15 15 16 16
15 15 15 15 15 16 15 15 15 16 16 17 16 17 15 16 16 15 14 15 15 14 15 15 14 13 14 14 14 13 13 13 12 13 13 14 14 15 15 15 15 15 16 16
15 16 15 15 15 16 15 16 17 16 17 16 18 17 17 16 17 17 14 14 15 15 15 15 15 14 13 13 14 14 14 14 13 13 14 15 15 16 16 16 16 15 16 16
16 16 16 17 17 16 17 16 17 17 16 16 16 16 18 17 18 16 14 15 14 15 15 15 14 14 14 14 14 14 14 14 15 15 15 15 16 16 16 16 16 16 16 16
17 17 16 15 15 15 16 16 17 18 17 15 17 19 18 17 16 17 16 16 16 16 16 15 15 15 15 14 14 14 15 15 16 16 16 16 16 16 16 16 17 17 16 16
17 17 16 15 16 17 18 18 19 19 17 17 19 20 19 16 16 17 17 17 17 16 16 16 16 16 15 15 15 15 16 16 16 17 17 17 17 17 17 17 17 16 16 17
18 17 17 17 16 18 18 18 17 19 19 19 20 20 20 19 19 18 18 17 18 17 16 16 16 16 16 15 15 15 16 16 17 17 18 18 18 18 18 18 17 18 18 19
20 19 18 18 16 17 18 19 18 19 20 19 19 19 19 19 20 20 19 19 18 17 17 17 17 17 16 15 15 16 16 17 18 19 19 19 20 19 19 18 18 19 19 19
20 19 19 18 18 17 17 18 18 19 19 18 19 18 19 19 19 19 20 19 18 18 18 18 18 16 15 15 16 16 17 18 19 19 19 20 20 20 19 19 19 19 19 19
20 19 19 18 18 18 18 19 20 20 19 20 20 21 21 20 21 20 20 19 19 18 18 18 18 17 16 17 17 18 18 19 19 20 20 20 20 20 20 19 19 19 19 19
20 20 19 18 17 19 20 19 20 20 21 21 21 22 22 22 22 21 20 19 19 19 19 19 19 18 18 18 19 19 20 20 21 20 20 20 20 20 20 19 19 20 20 20
21 20 20 19 19 19 20 20 20 21 22 22 22 21 21 22 22 21 21 20 19 19 19 19 19 20 20 20 20 20 20 21 21 21 20 20 20 20 19 19 20 20 21 21
20 20 20 20 19 20 21 21 21 21 23 23 22 21 21 22 22 22 21 20 20 20 20 20 20 21 21 21 20 20 20 20 20 20 19 19 19 19 19 19 20 20 21 21
20 20 21 21 21 22 20 20 21 23 24 22 23 22 22 22 22 22 22 22 21 21 20 20 20 20 20 20 20 20 20 19 19 19 19 19 19 20 20 20 21 21 21 21
21 22 23 22 22 23 22 22 23 23 24 23 23 23 23 23 23 23 22 23 23 21 20 20 20 19 20 20 19 20 19 19 19 19 19 19 19 20 21 21 21 21 21 22
24 24 24 25 26 25 24 24 24 24 24 25 26 25 24 24 24 24 24 23 23 22 21 21 20 20 20 20 20 20 19 19 19 19 20 20 20 21 20 20 20 21 22 22
25 23 24 25 26 26 27 25 25 25 25 25 25 25 25 25 25 25 24 24 23 22 22 21 21 20 20 21 21 20 20 19 20 21 21 20 20 20 21 21 22 22 22 22
24 24 25 26 26 26 26 26 25 26 25 25 25 26 26 25 24 24 24 23 22 22 22 22 22 22 22 22 22 21 21 21 22 22 22 21 21 21 21 22 22 22 22 23
26 26 27 27 27 27 27 27 26 26 26 25 25 25 25 24 24 24 23 23 23 23 23 23 23 23 23 23 22 22 22 23 22 22 22 22 22 22 21 22 22 23 23 23
Wind_Direction
244 245 244 245 241 237 241 250 255 259 260 257 265 270 271 273 285 292 293 297 301 299 302 303 300 297 296 295 291 288 290 293 295 295 294 291 289 292 292 288 290 292 296 297
243 243 242 241 235 233 235 247 252 252 257 259 267 272 274 277 280 285 289 292 296 297 302 304 301 300 294 292 292 293 294 293 295 297 297 294 293 292 292 292 292 298 298 300
245 244 241 239 239 238 243 244 245 254 258 263 268 270 269 276 278 280 285 289 292 294 302 305 305 301 298 290 287 291 294 294 296 297 297 296 295 294 292 292 296 298 298 298
245 239 240 238 238 237 242 245 248 250 256 261 265 271 273 280 280 280 283 288 293 294 298 301 302 302 300 294 291 291 293 294 295 294 297 300 298 294 293 294 294 295 296 297
246 239 240 239 241 243 243 246 252 253 256 256 256 264 273 279 279 281 286 288 288 291 293 297 301 299 299 298 297 294 291 293 295 298 301 305 302 298 296 295 295 295 297 301
240 237 236 235 237 242 245 248 253 255 259 263 262 263 267 276 284 290 290 287 287 289 292 292 296 295 296 299 300 300 300 296 294 295 298 303 304 303 301 299 301 301 301 302
245 240 238 233 233 239 243 248 257 257 259 265 266 267 269 274 282 291 291 289 287 288 293 289 288 289 290 293 296 298 299 296 293 293 293 296 300 301 302 303 301 301 302 301
246 250 247 243 239 239 241 240 251 260 265 271 271 269 270 273 279 286 284 285 288 289 290 291 291 287 286 286 286 290 296 296 294 294 293 295 298 299 301 303 303 303 303 303
238 243 242 240 238 236 236 239 244 259 269 269 270 270 268 271 274 280 282 288 292 293 297 297 295 289 287 285 287 290 294 294 292 296 298 299 301 302 303 305 305 305 307 307
239 245 242 244 244 241 238 244 245 253 257 263 270 268 269 276 279 276 282 289 293 295 298 296 293 285 283 284 288 290 292 298 302 301 301 300 302 303 304 305 305 305 307 310
246 247 246 245 242 240 239 243 248 254 254 261 270 269 271 277 278 278 281 286 290 290 287 285 288 287 282 282 286 289 290 293 297 298 299 300 303 306 307 307 303 303 304 304
247 248 243 243 246 245 245 242 246 250 252 261 271 268 267 272 275 279 284 286 288 288 285 286 287 288 284 284 287 287 288 291 294 295 295 298 301 304 304 303 302 302 303 303
247 242 244 241 243 247 242 240 241 247 255 259 264 270 266 270 273 275 279 281 285 289 287 287 286 285 283 282 284 285 287 290 293 295 296 298 300 300 301 300 301 302 304 304
241 241 243 244 248 253 254 254 250 254 257 258 261 266 268 276 280 280 281 281 281 285 287 284 284 283 285 283 282 284 286 289 293 294 294 294 295 298 299 298 298 301 304 304
242 239 241 245 245 254 261 260 259 254 255 262 266 266 269 275 278 279 279 279 280 282 283 282 283 284 284 284 284 285 286 288 289 290 293 294 295 297 298 298 298 299 301 301
244 243 245 245 243 245 254 258 258 257 260 261 266 266 267 273 280 277 278 278 280 283 283 283 282 281 281 282 284 286 286 288 289 291 293 294 295 297 298 298 298 298 299 300
247 249 249 245 245 248 249 252 254 257 262 263 267 269 276 280 279 278 279 281 280 281 282 284 283 279 280 282 283 284 285 288 290 291 292 293 294 295 296 297 298 300 300 299
246 251 254 255 253 251 253 255 259 261 264 267 269 274 278 279 279 278 277 279 280 280 281 283 280 279 281 284 284 284 285 286 287 289 291 291 293 294 294 295 296 297 298 298
246 248 253 254 257 256 255 255 258 263 264 266 269 272 273 275 275 277 277 276 278 280 282 283 282 282 283 283 284 285 285 286 287 288 290 292 293 293 294 295 296 297 297 297
247 247 249 254 256 258 262 255 258 263 264 265 267 268 270 270 272 275 276 276 277 279 281 281 281 282 284 283 283 284 287 288 288 288 290 292 291 290 291 293 295 297 297 296
249 250 252 253 255 256 261 260 261 262 263 267 268 266 268 269 271 275 276 275 275 277 278 280 281 282 284 285 285 284 287 288 288 287 288 289 289 289 290 292 294 295 296 296
248 252 254 257 258 259 261 263 263 264 266 268 269 268 269 270 271 273 274 275 276 276 278 280 282 283 284 286 286 286 286 287 288 288 288 287 287 287 290 292 292 293 294 296
248 251 255 256 257 260 262 262 264 265 264 265 267 267 268 269 270 272 273 274 274 276 277 278 280 282 284 285 286 287 287 288 288 288 289 288 287 288 290 292 293 293 293 295
248 252 255 258 257 259 262 264 265 265 265 264 266 266 266 269 270 272 273 274 273 273 275 277 277 279 282 284 285 285 286 287 288 289 290 289 287 287 290 292 292 292 292 293
249 251 253 257 259 259 261 263 265 264 264 264 266 264 266 268 270 272 273 273 273 273 275 275 275 276 279 280 282 282 283 286 289 288 288 288 285 285 288 291 292 292 292 291
248 250 253 256 258 260 262 262 264 265 264 265 266 264 264 266 269 272 272 273 272 272 274 274 275 277 279 280 281 281 283 286 288 287 288 288 286 286 287 289 292 293 293 292
Height
5836 5838 5840 5842 5843 5846 5847 5848 5849 5850 5850 5851 5851 5850 5849 5847 5847 5847 5845 5844 5842 5840 5839 5838 5836 5834 5834 5833 5832 5832 5831 5830 5829 5828 5827 5826 5825 5824 5823 5822 5822 5821 5820 5820
5834 5835 5838 5839 5841 5842 5844 5846 5847 5848 5848 5849 5848 5847 5846 5845 5844 5843 5843 5841 5840 5838 5837 5835 5833 5832 5831 5831 5830 5829 5828 5827 5826 5825 5824 5823 5822 5821 5821 5820 5820 5819 5818 5817
5830 5833 5834 5836 5838 5839 5841 5843 5843 5843 5844 5845 5845 5843 5843 5842 5840 5837 5838 5837 5836 5835 5834 5833 5831 5829 5829 5828 5828 5827 5826 5825 5824 5823 5822 5821 5820 5819 5818 5818 5817 5816 5815 5814
5827 5830 5831 5832 5834 5836 5838 5840 5840 5840 5841 5842 5843 5840 5839 5838 5837 5835 5834 5834 5833 5832 5832 5830 5829 5827 5826 5826 5825 5824 5823 5823 5822 5821 5820 5819 5818 5817 5816 5815 5814 5813 5812 5811
5824 5826 5828 5829 5831 5833 5835 5836 5836 5837 5837 5838 5839 5837 5836 5834 5833 5832 5832 5831 5831 5830 5829 5828 5827 5825 5824 5824 5823 5822 5821 5821 5820 5819 5818 5817 5816 5815 5814 5813 5812 5811 5810 5809
5821 5823 5824 5826 5828 5830 5831 5832 5833 5833 5834 5834 5834 5834 5833 5831 5829 5829 5829 5828 5828 5827 5826 5825 5824 5823 5822 5822 5821 5820 5819 5819 5818 5817 5816 5815 5814 5813 5812 5811 5810 5809 5808 5806
5818 5819 5820 5822 5824 5826 5828 5829 5830 5831 5831 5831 5831 5829 5829 5827 5827 5827 5826 5825 5825 5824 5823 5822 5821 5820 5820 5820 5819 5818 5817 5816 5815 5815 5814 5813 5812 5811 5810 5808 5807 5806 5805 5804
5816 5817 5818 5819 5821 5823 5825 5827 5828 5828 5828 5828 5827 5825 5825 5823 5824 5824 5823 5822 5821 5820 5820 5818 5818 5818 5817 5817 5816 5816 5815 5814 5813 5812 5811 5810 5809 5808 5807 5806 5805 5803 5802 5801
5813 5815 5816 5816 5818 5820 5821 5823 5825 5826 5825 5825 5823 5822 5820 5820 5820 5820 5820 5819 5819 5818 5817 5816 5815 5815 5814 5814 5813 5813 5812 5811 5810 5809 5808 5808 5807 5806 5805 5803 5802 5800 5799 5797
5809 5811 5813 5814 5815 5816 5819 5820 5821 5821 5821 5821 5820 5818 5817 5817 5816 5817 5817 5817 5817 5815 5814 5814 5813 5812 5811 5811 5810 5809 5809 5808 5807 5807 5806 5805 5804 5803 5802 5800 5799 5797 5796 5794
5806 5808 5810 5811 5812 5813 5814 5816 5817 5817 5817 5817 5817 5816 5813 5814 5813 5812 5813 5814 5813 5812 5811 5811 5810 5809 5808 5808 5807 5806 5806 5805 5805 5804 5803 5802 5801 5800 5798 5797 5796 5794 5793 5791
5802 5803 5805 5807 5809 5810 5811 5812 5813 5813 5813 5813 5813 5813 5810 5809 5809 5809 5810 5810 5809 5809 5808 5808 5807 5806 5805 5805 5804 5804 5803 5802 5802 5801 5800 5799 5798 5796 5795 5794 5793 5791 5790 5788
5797 5799 5801 5804 5807 5807 5807 5808 5809 5809 5809 5809 5809 5809 5806 5805 5805 5805 5807 5806 5806 5805 5805 5804 5804 5803 5802 5802 5801 5800 5800 5799 5798 5797 5796 5795 5794 5793 5792 5790 5789 5787 5786 5784
5794 5795 5798 5801 5802 5802 5803 5804 5805 5805 5804 5804 5803 5803 5803 5802 5803 5802 5802 5802 5802 5801 5801 5800 5800 5799 5799 5798 5797 5797 5796 5795 5795 5794 5793 5792 5790 5789 5788 5786 5785 5783 5782 5780
5789 5791 5793 5795 5797 5798 5799 5799 5800 5801 5800 5800 5799 5799 5799 5799 5799 5799 5798 5798 5798 5798 5797 5797 5796 5796 5795 5795 5794 5793 5792 5792 5791 5790 5789 5788 5786 5785 5784 5782 5781 5779 5778 5776
5784 5786 5788 5790 5792 5793 5795 5796 5796 5796 5797 5796 5796 5795 5795 5795 5795 5795 5794 5794 5794 5793 5793 5793 5792 5792 5791 5791 5790 5789 5789 5788 5787 5786 5784 5783 5782 5780 5779 5778 5776 5775 5773 5772
5780 5782 5784 5785 5787 5788 5789 5791 5791 5792 5792 5792 5791 5791 5790 5791 5791 5790 5790 5790 5790 5789 5789 5788 5788 5787 5787 5786 5786 5785 5785 5784 5782 5781 5780 5778 5777 5776 5775 5774 5772 5771 5769 5767
5777 5778 5779 5780 5783 5783 5787 5787 5787 5787 5787 5787 5787 5787 5786 5786 5786 5785 5785 5785 5785 5785 5785 5784 5783 5783 5782 5782 5781 5780 5780 5779 5777 5776 5775 5774 5772 5771 5770 5769 5768 5766 5764 5763
5772 5773 5775 5776 5777 5778 5780 5781 5782 5783 5782 5782 5782 5782 5782 5781 5781 5781 5781 5781 5781 5780 5780 5779 5779 5778 5777 5777 5776 5775 5774 5773 5772 5771 5769 5768 5767 5766 5765 5764 5763 5761 5760 5758
5767 5768 5770 5771 5771 5772 5774 5775 5776 5778 5777 5777 5777 5777 5777 5777 5777 5777 5777 5776 5776 5776 5775 5775 5774 5773 5772 5772 5771 5770 5769 5768 5766 5765 5764 5763 5762 5761 5760 5759 5758 5756 5754 5753
5761 5763 5764 5765 5766 5767 5769 5769 5771 5772 5771 5771 5771 5771 5771 5771 5772 5772 5771 5771 5771 5771 5770 5770 5769 5768 5767 5766 5765 5764 5764 5763 5761 5760 5759 5758 5757 5756 5755 5754 5753 5751 5749 5748
5756 5757 5758 5760 5761 5763 5763 5763 5764 5765 5764 5765 5765 5765 5765 5766 5766 5766 5765 5766 5765 5765 5765 5764 5764 5763 5762 5761 5760 5759 5758 5758 5756 5755 5754 5753 5752 5751 5750 5749 5747 5746 5744 5742
5749 5752 5753 5755 5757 5756 5756 5756 5757 5757 5758 5758 5759 5759 5760 5759 5760 5760 5760 5760 5760 5759 5759 5759 5758 5758 5757 5756 5755 5755 5754 5753 5752 5750 5749 5748 5747 5746 5744 5743 5742 5740 5739 5737
5742 5745 5747 5747 5748 5748 5749 5749 5750 5751 5751 5752 5752 5753 5753 5753 5753 5754 5754 5754 5753 5753 5753 5753 5752 5752 5752 5751 5750 5749 5749 5748 5747 5745 5743 5742 5741 5740 5739 5738 5736 5735 5733 5732
5736 5739 5740 5740 5741 5741 5742 5743 5744 5744 5744 5745 5745 5746 5746 5747 5747 5747 5748 5748 5747 5747 5747 5747 5746 5746 5746 5745 5745 5744 5743 5742 5741 5739 5737 5736 5735 5734 5733 5732 5730 5729 5727 5725
5729 5731 5733 5733 5734 5735 5735 5736 5736 5737 5737 5738 5739 5739 5739 5740 5740 5741 5741 5741 5741 5740 5740 5740 5740 5740 5740 5739 5739 5738 5737 5736 5735 5733 5732 5730 5729 5728 5727 5726 5725 5723 5721 5719